This demonstration page uses our WeatherBlox Daily Observations layout. Learn more.

Left ArrowRight Arrow

Hourly Observations for July 2, 2022

Temp ( °F °C ) Dew Point ( °F °C ) Humidity (%) Winds ( mph kmh ) Pressure ( in mb ) Visibility ( mi km ) Precip ( " mm )
12:15 am 00:15 Clear 75 24 66 19 74 74 Calm 29.96 1014 10 16 N/A
12:35 am 00:35 Partly Cloudy 73 23 68 20 83 83 N 6 9 29.96 1015 10 16 N/A
12:55 am 00:55 Clear 73 23 66 19 78 78 N 7 11 29.97 1015 10 16 N/A
1:15 am 01:15 Partly Cloudy 75 24 66 19 74 74 N 8 13 29.97 1015 10 16 N/A
1:35 am 01:35 Cloudy 73 23 66 19 78 78 NW 3 6 29.98 1015 10 16 N/A
1:55 am 01:55 Mostly Cloudy 73 23 66 19 78 78 WNW 5 7 29.98 1015 10 16 N/A
2:15 am 02:15 Mostly Cloudy 73 23 66 19 78 78 SW 3 6 29.99 1016 10 16 N/A
2:35 am 02:35 Mostly Cloudy 73 23 66 19 78 78 Calm 29.98 1015 10 16 N/A
2:55 am 02:55 Mostly Cloudy 73 23 66 19 78 78 NNW 6 9 29.97 1015 10 16 N/A
3:15 am 03:15 Cloudy 73 23 66 19 78 78 N 5 7 29.97 1015 10 16 N/A
3:35 am 03:35 Mostly Cloudy 72 22 68 20 88 88 Calm 29.97 1015 10 16 N/A
3:55 am 03:55 Cloudy 72 22 70 21 94 94 W 6 9 29.98 1015 10 16 N/A
4:15 am 04:15 Cloudy 70 21 70 21 100 100 WNW 10 17 30.00 1016 4 6 N/A
4:35 am 04:35 Cloudy 68 20 68 20 100 100 N 8 13 29.98 1015 7 11 N/A
4:55 am 04:55 Cloudy 68 20 68 20 100 100 NNW 3 6 29.98 1015 10 16 N/A
5:15 am 05:15 Cloudy 68 20 68 20 100 100 NNW 7 11 29.98 1015 10 16 N/A
5:35 am 05:35 Cloudy 70 21 70 21 100 100 Calm 29.99 1015 10 16 N/A
5:55 am 05:55 Cloudy 70 21 70 21 100 100 Calm 30.00 1016 10 16 N/A
6:15 am 06:15 Cloudy 70 21 70 21 100 100 N 6 9 30.00 1016 7 11 N/A
6:35 am 06:35 Cloudy 68 20 68 20 100 100 N 5 7 29.99 1016 4 6 N/A
6:55 am 06:55 Cloudy 68 20 68 20 100 100 Calm 30.00 1016 4 6 N/A
7:15 am 07:15 Cloudy 68 20 68 20 100 100 N 6 9 30.00 1016 4 6 N/A
7:35 am 07:35 Partly Cloudy 68 20 68 20 100 100 NNE 6 9 30.01 1016 4 6 N/A
7:55 am 07:55 Partly Cloudy 70 21 70 21 100 100 N 6 9 30.02 1016 4 6 N/A
8:15 am 08:15 Partly Cloudy 70 21 70 21 100 100 N 7 11 30.02 1016 5 8 N/A
8:35 am 08:35 Cloudy 70 21 70 21 100 100 N 5 7 30.03 1017 7 11 N/A
8:55 am 08:55 Mostly Cloudy 72 22 68 20 88 88 NNE 6 9 30.02 1017 10 16 N/A
9:15 am 09:15 Mostly Cloudy 73 23 66 19 78 78 NE 7 11 30.01 1016 10 16 N/A
9:35 am 09:35 Partly Cloudy 73 23 64 18 74 74 ENE 6 9 30.02 1017 10 16 N/A
9:55 am 09:55 Sunny 75 24 63 17 65 65 NE 5 7 30.02 1016 10 16 N/A
10:15 am 10:15 Sunny 75 24 63 17 65 65 ENE 7 11 30.02 1016 10 16 N/A
10:35 am 10:35 Sunny 77 25 63 17 61 61 NE 6 9 30.02 1017 10 16 N/A
10:55 am 10:55 Sunny 77 25 63 17 61 61 E 5 7 30.02 1017 10 16 N/A
11:15 am 11:15 Sunny 79 26 61 16 54 54 NE 6 9 30.02 1017 10 16 N/A
11:35 am 11:35 Sunny 79 26 61 16 54 54 N 5 7 30.02 1017 10 16 N/A
11:55 am 11:55 Sunny 79 26 61 16 54 54 NE 5 7 30.02 1017 10 16 N/A
12:15 pm 12:15 Sunny 79 26 63 17 58 58 Calm 30.02 1017 10 16 N/A
12:35 pm 12:35 Sunny 81 27 63 17 54 54 Calm 30.03 1017 10 16 N/A
12:55 pm 12:55 Partly Cloudy 81 27 63 17 54 54 NNE 7 11 30.03 1017 10 16 N/A
1:15 pm 13:15 Partly Cloudy 82 28 61 16 48 48 Calm 30.02 1017 10 16 N/A
1:35 pm 13:35 Partly Cloudy 82 28 61 16 48 48 NNE 6 9 30.01 1016 10 16 N/A
1:55 pm 13:55 Partly Cloudy 82 28 59 15 45 45 N 3 6 30.01 1016 10 16 N/A
2:15 pm 14:15 Partly Cloudy 84 29 61 16 45 45 N 8 13 30.01 1016 10 16 N/A
2:35 pm 14:35 Partly Cloudy 84 29 59 15 43 43 N 9 15 30.01 1016 10 16 N/A
2:55 pm 14:55 Partly Cloudy 84 29 61 16 45 45 N 6 9 30.00 1016 10 16 N/A
3:15 pm 15:15 Sunny 84 29 59 15 43 43 N 7 11 29.99 1016 10 16 N/A
3:35 pm 15:35 Sunny 86 30 57 14 38 38 NNE 9 15 29.99 1016 10 16 N/A
3:55 pm 15:55 Sunny 84 29 57 14 40 40 NNE 7 11 29.99 1016 10 16 N/A
4:15 pm 16:15 Sunny 84 29 57 14 40 40 NNW 5 7 29.99 1016 10 16 N/A
4:35 pm 16:35 Sunny 84 29 55 13 37 37 NNW 6 9 29.98 1015 10 16 N/A
4:55 pm 16:55 Sunny 84 29 57 14 40 40 NNW 5 7 29.98 1015 10 16 N/A
5:15 pm 17:15 Sunny 82 28 57 14 42 42 N 7 11 29.98 1015 10 16 N/A
5:35 pm 17:35 Sunny 82 28 57 14 42 42 N 9 15 29.98 1015 10 16 N/A
5:55 pm 17:55 Sunny 82 28 57 14 42 42 Calm 29.99 1016 10 16 N/A
6:15 pm 18:15 Sunny 81 27 57 14 45 45 N 6 9 29.99 1015 10 16 N/A
6:35 pm 18:35 Sunny 81 27 59 15 48 48 N 3 6 29.99 1015 10 16 N/A
6:55 pm 18:55 Sunny 79 26 59 15 51 51 N 7 11 29.98 1015 10 16 N/A
7:15 pm 19:15 Sunny 79 26 57 14 48 48 N 7 11 29.98 1015 10 16 N/A
7:35 pm 19:35 Sunny 79 26 59 15 51 51 N 7 11 29.98 1015 10 16 N/A
7:55 pm 19:55 Sunny 77 25 59 15 54 54 N 5 7 29.98 1015 10 16 N/A
8:15 pm 20:15 Sunny 77 25 59 15 54 54 N 3 6 29.98 1015 10 16 N/A
8:35 pm 20:35 Sunny 75 24 61 16 61 61 N 5 7 30.00 1016 10 16 N/A
8:55 pm 20:55 Sunny 75 24 61 16 61 61 N 5 7 30.01 1016 10 16 N/A
9:15 pm 21:15 Sunny 75 24 61 16 61 61 N 6 9 30.02 1016 10 16 N/A
9:35 pm 21:35 Clear 73 23 61 16 65 65 Calm 30.02 1017 10 16 N/A
9:55 pm 21:55 Clear 72 22 64 18 78 78 Calm 30.03 1017 10 16 N/A
10:15 pm 22:15 Partly Cloudy 73 23 57 14 57 57 N 6 9 30.04 1017 10 16 N/A
10:35 pm 22:35 Clear 73 23 55 13 53 53 N 6 9 30.04 1017 10 16 N/A
10:55 pm 22:55 Clear 72 22 55 13 57 57 N 6 9 30.05 1018 10 16 N/A
11:15 pm 23:15 Clear 72 22 54 12 53 53 N 6 9 30.05 1018 10 16 N/A
11:35 pm 23:35 Clear 72 22 54 12 53 53 Calm 30.06 1018 10 16 N/A
11:55 pm 23:55 Clear 72 22 55 13 57 57 N 5 7 30.05 1018 10 16 N/A

Powered by AerisWeather